Wind_Speed
23 23 24 25 25 26 27 28 28 28 28 28 28 29 30 30 30 30 30 31 32 32 33 35 37 38 40 42 44 46 48 51 53 54 54 55 55 55 56 56 55 56 58 58
24 24 24 25 26 27 28 28 28 27 28 28 27 28 28 28 27 28 29 31 30 30 31 34 34 35 37 40 42 42 44 47 49 52 52 53 53 54 55 56 55 55 56 58
24 25 25 25 26 28 28 28 27 27 27 28 28 26 25 26 27 27 28 29 30 30 31 32 32 33 35 38 40 40 41 43 45 47 49 50 51 53 54 55 54 55 53 54
24 25 26 26 27 27 27 27 26 27 29 29 30 29 25 26 26 26 28 29 29 30 31 32 31 31 33 35 36 37 39 39 42 45 47 47 48 50 51 53 53 54 53 51
25 26 26 27 27 27 27 27 27 28 30 31 30 29 27 26 26 25 27 28 29 30 31 30 30 29 30 32 33 35 38 38 38 41 44 45 45 46 48 50 51 53 53 52
25 26 27 27 28 28 27 28 29 29 31 31 30 29 27 26 25 25 26 27 28 29 29 29 29 29 30 31 31 33 34 36 37 39 41 42 43 44 45 47 49 51 52 52
26 27 27 28 27 28 29 30 31 32 32 31 30 29 27 27 27 27 27 28 29 28 28 28 29 29 29 30 31 32 32 34 36 37 40 40 41 41 43 45 46 48 50 50
27 27 28 29 29 30 30 31 31 32 32 31 30 29 28 28 28 28 28 28 28 28 28 29 29 29 29 29 30 32 33 33 34 36 38 39 40 41 41 42 44 46 47 49
28 28 28 29 29 30 30 30 31 32 32 32 31 29 28 28 28 28 28 27 28 29 29 29 28 29 28 28 30 33 34 33 33 35 36 37 38 39 40 41 42 44 45 47
29 29 29 29 29 30 30 32 33 32 33 33 32 31 29 29 29 29 28 28 28 30 30 29 29 29 28 29 31 32 32 32 32 33 34 34 34 36 38 39 40 41 43 44
29 30 29 30 30 30 31 31 32 32 33 34 34 33 31 31 31 31 30 29 30 30 31 31 30 30 29 29 30 30 29 30 30 31 30 31 32 34 36 38 39 40 42 43
30 30 30 30 31 31 31 32 32 32 33 34 35 34 32 32 32 33 32 31 31 31 31 31 30 30 29 29 29 29 28 29 30 31 30 29 31 34 34 35 37 39 41 42
31 32 32 31 31 32 32 33 33 33 34 34 35 34 32 33 33 34 33 32 32 32 32 31 30 30 29 29 29 27 27 28 29 30 31 31 31 32 33 34 36 38 39 40
33 32 32 32 32 33 33 33 33 34 35 35 35 34 32 33 34 34 33 33 33 33 33 32 31 29 28 28 28 27 28 27 27 28 30 31 30 31 33 34 34 35 36 36
34 33 33 33 33 34 34 34 34 34 35 35 35 34 34 35 35 34 34 34 33 33 33 32 31 29 28 28 26 25 26 26 26 26 27 28 29 30 32 33 32 33 34 35
34 35 34 34 34 35 35 34 34 35 35 35 35 34 34 36 37 36 35 35 34 34 34 32 31 31 29 27 26 25 25 25 25 25 26 26 27 29 30 31 31 32 33 34
35 36 36 36 35 36 36 34 34 34 34 35 35 35 35 36 37 37 37 36 35 35 34 34 33 31 29 27 26 25 25 26 26 26 26 26 27 28 29 30 29 30 31 32
36 37 37 38 37 38 36 35 35 35 35 35 36 36 36 37 38 38 38 37 37 36 35 35 33 31 29 27 26 26 25 25 25 25 24 25 26 27 28 28 29 30 30 31
36 37 38 38 39 39 36 37 37 37 36 36 36 36 37 38 38 38 38 38 37 37 36 35 32 31 30 28 27 26 26 25 25 25 24 24 25 26 26 26 27 28 29 30
37 37 38 39 40 40 38 38 38 39 38 37 37 38 39 40 39 38 38 38 37 37 36 34 32 31 29 28 28 27 26 25 25 25 24 24 24 24 24 25 25 26 27 28
38 38 38 39 40 40 39 39 39 39 39 39 39 40 40 41 41 40 39 38 38 37 36 34 32 31 30 29 28 28 26 26 25 25 24 23 23 23 24 24 24 25 26 27
39 39 39 39 40 39 39 40 40 40 40 40 40 41 41 41 41 41 40 39 38 37 36 34 32 31 30 29 29 27 26 25 25 24 23 23 23 23 24 24 24 25 25 26
40 39 40 40 40 40 40 40 41 41 41 41 41 41 41 41 40 40 40 39 38 37 35 34 33 31 30 29 28 27 26 25 25 24 22 22 23 23 23 24 24 24 25 25
41 40 41 41 40 41 41 42 42 42 43 42 42 42 41 41 41 40 40 38 37 36 35 34 33 31 30 29 28 27 25 25 25 25 24 24 23 23 23 24 25 25 25 25
42 41 41 41 41 42 42 42 43 43 44 44 43 42 42 41 41 40 39 38 37 36 34 33 32 31 29 28 28 27 27 26 26 26 25 25 24 24 24 25 26 26 27 27
41 41 42 42 42 43 43 43 43 44 44 44 44 43 42 41 41 40 38 38 37 36 35 34 32 30 28 27 27 27 27 27 27 26 25 25 25 25 25 25 26 26 27 27
Wind_Direction
320 321 322 322 321 322 321 317 315 315 314 312 309 305 303 298 291 290 289 286 284 280 281 278 273 268 265 262 259 255 253 252 250 248 247 247 247 247 247 247 246 247 246 244
320 321 322 322 322 323 323 321 318 318 318 316 313 311 307 303 297 295 292 290 288 287 285 282 275 271 268 266 262 258 256 254 251 250 248 248 248 248 247 246 245 247 246 244
322 323 323 322 322 322 322 321 321 320 319 319 317 316 310 306 305 302 297 293 293 292 290 285 280 275 272 270 265 261 261 256 253 251 250 250 248 247 247 245 244 245 244 244
321 323 323 323 322 322 322 321 322 322 322 323 321 319 315 310 306 301 299 297 296 294 292 289 284 281 278 274 268 264 264 261 257 253 251 251 250 248 246 245 243 243 243 243
320 321 322 323 323 323 322 322 322 321 323 324 323 321 319 312 308 304 302 301 298 298 295 291 289 285 282 278 270 265 263 264 262 256 252 251 250 248 246 244 244 243 242 242
318 320 321 322 323 323 323 323 323 323 323 325 325 323 321 318 312 310 309 309 306 302 298 293 291 287 285 279 270 268 266 264 264 259 253 251 250 248 246 244 243 243 243 241
314 317 319 320 321 323 323 323 323 324 325 325 326 326 325 321 318 314 314 312 310 307 304 299 294 289 286 281 271 272 272 267 264 260 254 251 250 248 248 246 244 243 242 240
313 315 317 318 320 322 323 324 325 324 325 324 325 327 327 323 321 317 315 314 312 308 306 303 300 294 288 282 278 276 274 271 266 259 254 252 250 250 249 248 245 244 243 240
312 314 315 316 319 321 323 324 324 324 323 323 325 326 325 324 323 320 315 313 313 313 312 308 304 298 291 283 278 275 273 269 266 259 253 252 251 249 248 246 245 244 244 240
308 310 314 315 317 319 320 322 323 324 323 323 324 325 326 326 324 322 318 314 314 315 316 313 308 302 293 286 281 277 273 268 263 257 252 252 251 247 246 247 246 245 243 239
306 308 311 313 316 318 319 321 320 320 321 320 321 324 325 324 322 322 319 317 318 317 316 316 313 307 298 291 288 282 275 267 262 258 254 254 251 249 247 247 245 243 241 239
304 306 308 311 314 315 317 318 318 319 319 318 319 323 323 322 321 320 319 318 317 316 315 315 313 309 303 295 291 285 276 267 261 258 256 255 253 249 246 246 244 241 240 239
300 303 307 309 311 313 314 315 315 315 315 316 317 320 320 319 318 318 318 318 316 315 314 313 311 309 304 298 293 284 276 269 264 259 257 256 254 249 246 246 244 240 239 239
296 299 303 307 309 311 312 312 313 314 314 314 316 316 318 317 316 316 316 316 315 315 314 312 309 307 304 299 294 285 279 273 266 262 261 257 254 250 247 246 245 242 239 238
292 295 299 302 305 307 308 310 311 312 314 313 315 315 317 315 315 315 315 314 313 312 312 310 308 307 304 298 292 286 278 272 267 265 263 257 255 251 246 244 243 241 240 239
291 293 295 299 302 304 305 308 309 310 312 312 312 315 315 314 314 314 314 313 312 311 310 307 305 305 302 297 291 285 278 273 270 269 267 261 257 252 248 246 246 245 244 243
289 292 293 296 298 300 303 307 307 308 310 311 312 314 314 314 314 314 313 312 312 310 308 306 305 303 300 297 292 287 279 274 272 270 266 260 259 256 249 248 247 245 244 244
287 290 292 295 297 298 303 304 305 307 308 309 310 311 312 314 315 314 312 311 310 310 308 305 303 300 298 293 290 287 284 279 273 269 266 262 260 258 253 248 248 248 247 246
286 289 292 294 295 297 301 303 304 305 306 307 307 308 310 312 313 312 310 310 310 310 309 306 302 299 295 291 289 286 284 280 274 270 268 265 261 257 253 250 248 245 246 245
284 287 290 293 294 297 301 302 303 303 304 305 305 306 308 310 310 310 309 309 307 307 308 306 301 297 293 288 285 286 284 280 273 269 267 264 260 256 252 250 249 247 247 246
282 285 288 291 293 296 301 301 302 302 304 304 305 306 307 308 309 309 308 306 305 305 304 303 299 294 292 287 284 283 280 279 272 268 265 263 260 258 254 251 249 247 247 246
280 283 286 289 291 297 298 299 300 301 302 303 305 306 306 306 306 305 305 304 303 302 301 301 299 294 290 287 285 282 279 277 273 269 265 263 261 257 252 251 248 247 247 246
278 282 284 286 290 294 295 296 298 300 301 302 304 305 304 304 304 303 302 302 301 300 299 298 297 293 288 285 283 279 275 275 274 271 268 263 260 257 253 251 248 248 247 246
278 280 282 285 289 291 293 295 297 298 299 301 302 303 303 302 302 301 300 300 299 298 298 297 294 291 286 283 282 278 274 273 272 269 267 263 258 254 254 254 252 251 250 250
278 280 283 285 287 289 291 294 295 296 298 299 300 301 301 300 300 300 299 298 298 297 296 295 293 289 284 282 280 276 273 272 272 269 266 262 260 256 254 254 254 253 252 250
276 279 281 284 286 288 290 292 293 295 296 297 298 298 299 299 299 299 298 297 296 296 294 292 291 288 283 280 278 275 273 272 272 268 264 261 261 257 254 254 256 255 254 252
Height
5716 5714 5709 5705 5701 5696 5691 5687 5682 5678 5673 5669 5664 5660 5656 5651 5648 5646 5644 5643 5641 5640 5639 5637 5636 5636 5637 5638 5640 5642 5645 5648 5651 5655 5660 5665 5670 5674 5678 5682 5687 5691 5695 5700
5713 5709 5705 5700 5696 5691 5686 5682 5678 5674 5668 5664 5659 5655 5649 5645 5641 5639 5637 5634 5633 5631 5630 5628 5626 5625 5625 5626 5627 5628 5631 5632 5636 5640 5644 5649 5654 5658 5662 5667 5672 5675 5679 5684
5708 5705 5700 5696 5692 5687 5682 5678 5673 5669 5665 5659 5655 5651 5645 5641 5637 5633 5630 5627 5625 5623 5621 5619 5618 5617 5615 5615 5616 5617 5618 5620 5623 5626 5629 5633 5637 5642 5646 5651 5657 5661 5665 5670
5704 5700 5696 5692 5688 5683 5679 5674 5670 5665 5660 5656 5651 5646 5642 5637 5633 5629 5626 5623 5620 5616 5613 5612 5610 5608 5606 5605 5605 5606 5607 5609 5611 5613 5616 5619 5623 5628 5632 5637 5642 5646 5651 5656
5699 5695 5691 5687 5683 5679 5674 5670 5665 5661 5655 5651 5646 5641 5639 5633 5629 5625 5621 5617 5613 5610 5606 5604 5602 5600 5598 5596 5596 5597 5597 5598 5599 5600 5603 5606 5610 5614 5618 5622 5627 5632 5637 5642
5695 5691 5687 5683 5679 5674 5670 5665 5661 5656 5652 5647 5642 5637 5633 5628 5623 5620 5616 5612 5607 5604 5600 5597 5595 5592 5590 5588 5588 5588 5587 5588 5589 5589 5592 5595 5598 5601 5605 5609 5614 5619 5624 5629
5691 5687 5683 5679 5675 5670 5666 5662 5656 5651 5646 5643 5638 5632 5629 5623 5619 5615 5611 5607 5602 5598 5595 5591 5589 5586 5583 5581 5580 5579 5579 5579 5579 5580 5582 5584 5587 5590 5593 5598 5602 5606 5611 5617
5685 5683 5679 5674 5670 5666 5661 5657 5652 5646 5641 5638 5634 5629 5626 5620 5615 5610 5606 5601 5597 5592 5589 5585 5582 5579 5576 5574 5572 5570 5570 5569 5570 5570 5572 5574 5577 5579 5583 5587 5591 5595 5600 5606
5679 5677 5674 5669 5665 5661 5656 5652 5648 5643 5637 5633 5629 5625 5622 5616 5611 5606 5601 5597 5592 5588 5583 5579 5575 5571 5568 5566 5564 5562 5560 5560 5560 5561 5562 5566 5568 5570 5574 5577 5580 5584 5589 5594
5674 5672 5669 5665 5661 5656 5652 5647 5642 5637 5631 5626 5624 5620 5617 5611 5606 5601 5596 5592 5587 5583 5578 5574 5569 5565 5562 5558 5556 5553 5552 5551 5551 5551 5554 5556 5559 5561 5564 5567 5570 5574 5579 5583
5668 5666 5663 5659 5655 5651 5647 5643 5637 5632 5628 5622 5616 5618 5612 5606 5600 5595 5591 5586 5581 5577 5573 5568 5563 5559 5555 5551 5548 5545 5543 5543 5543 5544 5547 5549 5550 5552 5555 5557 5560 5564 5568 5573
5661 5659 5656 5654 5650 5646 5642 5638 5633 5628 5623 5617 5611 5613 5606 5601 5594 5589 5585 5580 5576 5571 5567 5562 5557 5553 5548 5545 5541 5538 5536 5536 5537 5538 5540 5541 5543 5545 5546 5549 5551 5555 5559 5564
5654 5652 5649 5647 5646 5641 5636 5631 5627 5622 5618 5612 5607 5607 5601 5595 5589 5584 5579 5575 5571 5566 5562 5557 5552 5547 5543 5538 5535 5532 5530 5530 5530 5531 5532 5534 5535 5537 5539 5541 5543 5546 5550 5555
5647 5645 5644 5641 5637 5632 5629 5625 5620 5615 5611 5606 5602 5599 5596 5589 5584 5580 5575 5570 5565 5561 5556 5551 5546 5542 5537 5533 5530 5527 5525 5524 5524 5524 5525 5527 5528 5530 5532 5533 5536 5539 5543 5548
5639 5638 5636 5633 5630 5626 5622 5619 5614 5609 5604 5599 5596 5592 5589 5583 5578 5574 5569 5564 5560 5555 5550 5545 5540 5536 5532 5528 5525 5522 5520 5519 5518 5518 5519 5520 5521 5522 5524 5527 5529 5533 5537 5541
5630 5629 5627 5626 5623 5619 5616 5613 5608 5603 5598 5593 5588 5586 5582 5576 5572 5567 5562 5558 5553 5549 5544 5539 5534 5530 5526 5523 5520 5517 5515 5514 5513 5513 5513 5513 5514 5516 5518 5521 5523 5526 5530 5534
5622 5620 5618 5617 5614 5610 5609 5607 5602 5597 5592 5587 5582 5579 5575 5570 5565 5560 5555 5551 5547 5542 5537 5533 5528 5524 5520 5517 5514 5512 5510 5509 5508 5508 5507 5507 5508 5509 5512 5514 5516 5519 5523 5527
5614 5611 5608 5606 5605 5602 5604 5598 5594 5589 5585 5580 5575 5571 5567 5563 5558 5554 5548 5544 5539 5535 5531 5526 5522 5518 5515 5512 5509 5507 5505 5504 5503 5502 5502 5502 5502 5503 5505 5507 5510 5513 5517 5520
5605 5602 5599 5596 5593 5592 5594 5589 5584 5580 5578 5573 5568 5564 5560 5555 5552 5548 5542 5537 5532 5528 5523 5519 5515 5512 5509 5506 5503 5501 5500 5498 5497 5497 5497 5497 5497 5498 5500 5502 5504 5507 5510 5513
5596 5593 5591 5587 5583 5582 5585 5580 5575 5571 5569 5566 5560 5556 5552 5547 5544 5542 5535 5530 5525 5520 5516 5512 5508 5505 5502 5499 5497 5495 5494 5492 5491 5491 5491 5491 5492 5493 5494 5496 5498 5501 5503 5506
5586 5583 5582 5578 5573 5573 5575 5570 5566 5563 5561 5556 5552 5548 5544 5539 5535 5531 5527 5522 5517 5513 5509 5505 5501 5498 5495 5493 5491 5489 5488 5487 5486 5485 5485 5486 5486 5487 5489 5491 5492 5495 5497 5500
5575 5573 5572 5569 5565 5567 5564 5559 5556 5553 5550 5546 5542 5539 5535 5531 5527 5522 5518 5513 5509 5505 5501 5498 5494 5491 5488 5486 5484 5483 5481 5480 5480 5479 5479 5480 5481 5481 5483 5484 5486 5488 5491 5494
5565 5564 5562 5560 5560 5557 5553 5550 5546 5543 5540 5537 5533 5530 5526 5522 5518 5514 5509 5505 5501 5497 5493 5490 5486 5483 5481 5478 5477 5476 5475 5474 5473 5473 5473 5473 5474 5475 5476 5478 5480 5482 5484 5487
5554 5553 5551 5550 5550 5547 5543 5539 5536 5533 5530 5527 5523 5520 5516 5512 5508 5504 5500 5496 5492 5489 5485 5481 5478 5475 5473 5471 5469 5468 5467 5467 5467 5467 5467 5467 5468 5469 5470 5471 5473 5475 5477 5480
5543 5541 5540 5539 5539 5535 5534 5530 5526 5523 5520 5517 5513 5510 5506 5502 5499 5495 5491 5487 5483 5479 5476 5472 5469 5467 5465 5463 5461 5460 5460 5459 5459 5459 5460 5460 5461 5462 5464 5465 5466 5468 5470 5472
5533 5531 5529 5528 5527 5524 5523 5520 5516 5513 5510 5506 5503 5500 5496 5491 5488 5484 5481 5477 5473 5470 5467 5463 5461 5458 5456 5455 5453 5452 5452 5452 5452 5452 5452 5453 5454 5455 5456 5458 5459 5461 5463 5465